Skip Page Navigation
NASA JPL Caltech
NASA Logo - Jet Propulsion Laboratory + View the NASA Portal
+ Center for Near-Earth Object Studies
JPL Home Earth Solar System Stars & Galaxies Technology
JPL Solar System Dynamics
BODIES ORBITS EPHEMERIDES TOOLS PHYSICAL DATA DISCOVERY FAQ SITE MAP
IMPORTANT: The SSD Announcement email list is now available. Major changes are coming in the near future, including possible hostname and/or URL changes. To be notified of such changes, subscribe to this email list.

Please visit this page for more details.


JPL Small-Body Database Browser
Search: [ help ]  
423993 (2006 VT80)
Classification: Main-belt Asteroid          SPK-ID: 2423993
Ephemeris | Orbit Diagram | Orbital Elements | Mission Design | Physical Parameters | Discovery Circumstances ]

[ show orbit diagram ]
Orbital Elements at Epoch 2459000.5 (2020-May-31.0) TDB
Reference: JPL 9 (heliocentric ecliptic J2000)
 Element Value Uncertainty (1-sigma)   Units 
e .1986157362945613 5.6647e-08  
a 2.422834655327161 1.678e-08 au
q 1.941621566339378 1.4509e-07 au
i 2.879963814665635 7.5016e-06 deg
node 130.7597688888226 0.0001332 deg
peri 283.5376130498985 0.00013726 deg
M 216.3375712886372 3.1843e-05 deg
tp 2459550.198808789844
(2021-Dec-01.69880879)
0.00012602 TDB
period 1377.476163666525
3.77
1.431e-05
3.918e-08
d
yr
n .2613475350758612 2.715e-09 deg/d
Q 2.904047744314945 2.0113e-08 au
  Orbit Determination Parameters
   # obs. used (total)      130  
   data-arc span      6028 days (16.50 yr)  
   first obs. used      2002-10-01  
   last obs. used      2019-04-03  
   planetary ephem.      DE431  
   SB-pert. ephem.      SB431-N16  
   condition code      0  
   norm. resid. RMS      .54339  
   source      ORB  
   producer      Otto Matic  
   solution date      2019-Jul-14 08:32:39  

Additional Information
 Earth MOID = .955494 au 
 Jupiter MOID = 2.45778 au 
 T_jup = 3.483 
[ hide covariance matrix ]
Orbital Elements at Epoch 2457027.5 (2015-Jan-05.0) TDB
Reference: JPL 9 (heliocentric ecliptic J2000)
 Element Value Uncertainty (1-sigma)   Units 
e .1989150599297315 5.5876e-08  
q 1.94087634903775 1.4246e-07 au
tp 2456798.024968500149
(2014-May-20.52496850)
0.00010756 TDB
node 130.7843567181079 0.00013325 deg
peri 283.8730145755868 0.00013728 deg
i 2.879498822501099 7.5003e-06 deg
  Orbit Determination Parameters
   # obs. used (total)      130  
   data-arc span      6028 days (16.50 yr)  
   first obs. used      2002-10-01  
   last obs. used      2019-04-03  
   planetary ephem.      DE431  
   SB-pert. ephem.      SB431-N16  
   condition code      0  
   norm. resid. RMS      .54339  
   source      ORB  
   producer      Otto Matic  
   solution date      2019-Jul-14 08:32:39  

Additional Information
 Jupiter MOID = 2.45778 au 
 T_jup = 3.483 
Orbit Covariance (6×6)
  e q tp node peri i
e 3.122166467304964E-15 -7.936061768401266E-15 -3.822318142158747E-12 -3.301934881369853E-15 -1.156130309427685E-12 -9.189529918330886E-15
q -7.936061768401266E-15 2.029469646106498E-14 1.001222622267169E-11 6.292993576593185E-15 3.035525794963388E-12 2.402780474753697E-14
tp -3.822318142158747E-12 1.001222622267169E-11 1.156995491555809E-8 -4.26671520261257E-11 3.599279287917862E-9 1.74250648116957E-11
node -3.301934881369853E-15 6.292993576593185E-15 -4.26671520261257E-11 1.775513357923635E-8 -1.774536972840232E-8 5.462965001998007E-10
peri -1.156130309427685E-12 3.035525794963388E-12 3.599279287917862E-9 -1.774536972840232E-8 1.884694141519252E-8 -5.403016782177096E-10
i -9.189529918330886E-15 2.402780474753697E-14 1.74250648116957E-11 5.462965001998007E-10 -5.403016782177096E-10 5.625436698593385E-11

Ephemeris | Orbit Diagram | Orbital Elements | Mission Design | Physical Parameters | Discovery Circumstances ]

Physical Parameter Table
Parameter Symbol Value Units Sigma Reference Notes
absolute magnitude H 17.8   n/a MPO427998  

423993 (2006 VT80)          Discovered 2006-Nov-12 by Mt. Lemmon Survey at Mount Lemmon
Reference: Last Updated: 2015-02-04
Ephemeris | Orbit Diagram | Orbital Elements | Mission Design | Physical Parameters | Discovery Circumstances ]
ABOUT SSD CREDITS/AWARDS PRIVACY/COPYRIGHT GLOSSARY LINKS
FirstGov 2020-Apr-07 12:47 UT
(server date/time)  
NASA Home Page
Site Manager:   Ryan S. Park
Webmaster  Alan B. Chamberlin